| time (UTC) | temp C | wind direction | speed KPH | gust KPH | rain 1hr cm | rain 24hr cm | rain mn cm | humidity % | barometer mb |
| 20260510153026 | 5 | 19 | 4.8 | 19.3 | 0.00 | 0.00 | 0.00 | 59 | 1017.6 |
| 20260510151515 | 5 | 318 | 8.0 | 17.7 | 0.00 | 0.00 | 0.00 | 60 | 1017.5 |
| 20260510150022 | 5 | 359 | 4.8 | 16.1 | 0.00 | 0.00 | 0.00 | 59 | 1017.4 |
| 20260510144527 | 5 | 359 | 3.2 | 16.1 | 0.00 | 0.00 | 0.00 | 56 | 1017.2 |
| 20260510143033 | 5 | 314 | 3.2 | 12.9 | 0.00 | 0.00 | 0.00 | 57 | 1017.0 |
| 20260510141511 | 5 | 2 | 3.2 | 14.5 | 0.00 | 0.00 | 0.00 | 55 | 1016.9 |
| 20260510140019 | 5 | 341 | 3.2 | 12.9 | 0.00 | 0.00 | 0.00 | 56 | 1016.8 |
| 20260510134504 | 6 | 290 | 4.8 | 20.9 | 0.00 | 0.00 | 0.00 | 57 | 1016.8 |
| 20260510133013 | 5 | 358 | 8.0 | 16.1 | 0.00 | 0.00 | 0.00 | 60 | 1016.6 |
| 20260510131511 | 5 | 302 | 6.4 | 16.1 | 0.00 | 0.00 | 0.00 | 63 | 1016.4 |
| 20260510130013 | 5 | 1 | 3.2 | 8.0 | 0.00 | 0.00 | 0.00 | 67 | 1016.2 |
| 20260510124518 | 4 | 18 | 3.2 | 9.7 | 0.00 | 0.00 | 0.00 | 68 | 1016.0 |
| 20260510123007 | 4 | 37 | 1.6 | 11.3 | 0.00 | 0.00 | 0.00 | 70 | 1015.9 |
| 20260510121507 | 3 | 326 | 4.8 | 14.5 | 0.00 | 0.00 | 0.00 | 73 | 1015.5 |
| 20260510120015 | 2 | 325 | 3.2 | 12.9 | 0.00 | 0.00 | 0.00 | 77 | 1015.4 |
| 20260510114516 | 2 | 300 | 0.0 | 14.5 | 0.00 | 0.00 | 0.00 | 78 | 1015.2 |
| 20260510113030 | 2 | 359 | 3.2 | 19.3 | 0.00 | 0.00 | 0.00 | 78 | 1014.5 |
| 20260510111504 | 2 | 340 | 3.2 | 14.5 | 0.00 | 0.00 | 0.00 | 79 | 1014.5 |
| 20260510110022 | 2 | 360 | 3.2 | 19.3 | 0.00 | 0.00 | 0.00 | 80 | 1014.2 |
| 20260510104515 | 2 | 302 | 3.2 | 11.3 | 0.00 | 0.00 | 0.00 | 80 | 1013.8 |
| 20260510103021 | 2 | 333 | 3.2 | 19.3 | 0.00 | 0.00 | 0.00 | 80 | 1013.6 |
| 20260510101525 | 2 | 322 | 3.2 | 19.3 | 0.00 | 0.00 | 0.00 | 81 | 1013.7 |
| 20260510100029 | 1 | 308 | 3.2 | 11.3 | 0.00 | 0.00 | 0.00 | 82 | 1013.6 |
| 20260510094513 | 1 | 309 | 1.6 | 11.3 | 0.00 | 0.00 | 0.00 | 82 | 1013.5 |
| 20260510093025 | 1 | 325 | 1.6 | 9.7 | 0.00 | 0.00 | 0.00 | 82 | 1013.4 |
| 20260510091525 | 1 | 316 | 4.8 | 9.7 | 0.00 | 0.00 | 0.00 | 85 | 1013.2 |
| 20260510090040 | 1 | 305 | 1.6 | 8.0 | 0.00 | 0.00 | 0.00 | 86 | 1013.1 |
| 20260510084514 | 0 | 355 | 0.0 | 8.0 | 0.00 | 0.00 | 0.00 | 87 | 1013.1 |
| 20260510083014 | 0 | 311 | 1.6 | 6.4 | 0.00 | 0.00 | 0.00 | 88 | 1013.0 |
| 20260510081520 | 0 | 314 | 1.6 | 6.4 | 0.00 | 0.00 | 0.00 | 88 | 1012.9 |
| 20260510080024 | 0 | 316 | 0.0 | 9.7 | 0.00 | 0.00 | 0.00 | 88 | 1012.8 |
| 20260510074528 | 0 | 287 | 3.2 | 9.7 | 0.00 | 0.00 | 0.00 | 90 | 1012.7 |
| 20260510073011 | -1 | 312 | 0.0 | 3.2 | 0.00 | 0.00 | 0.00 | 89 | 1012.5 |
| 20260510071517 | -1 | 312 | 0.0 | 3.2 | 0.00 | 0.00 | 0.00 | 88 | 1012.3 |
| 20260510070021 | -1 | 312 | 0.0 | 3.2 | 0.00 | 0.00 | 0.00 | 86 | 1012.4 |
| 20260510064529 | 0 | 312 | 1.6 | 3.2 | 0.00 | 0.00 | 0.00 | 85 | 1012.3 |
| 20260510063026 | 0 | 312 | 0.0 | 3.2 | 0.00 | 0.00 | 0.00 | 85 | 1012.3 |
| 20260510061512 | 0 | 312 | 0.0 | 3.2 | 0.00 | 0.00 | 0.00 | 84 | 1012.4 |
| 20260510060019 | 1 | 312 | 0.0 | 3.2 | 0.00 | 0.00 | 0.00 | 83 | 1012.3 |
| 20260510054524 | 1 | 312 | 1.6 | 4.8 | 0.00 | 0.00 | 0.00 | 82 | 1012.3 |
| 20260510053025 | 2 | 312 | 0.0 | 3.2 | 0.00 | 0.00 | 0.00 | 80 | 1012.3 |
| 20260510051528 | 2 | 312 | 0.0 | 6.4 | 0.00 | 0.00 | 0.00 | 78 | 1012.1 |
| 20260510050016 | 2 | 287 | 0.0 | 9.7 | 0.00 | 0.00 | 0.00 | 79 | 1012.0 |
| 20260510044529 | 2 | 307 | 1.6 | 12.9 | 0.00 | 0.00 | 0.00 | 79 | 1011.8 |
| 20260510043026 | 2 | 359 | 1.6 | 9.7 | 0.00 | 0.00 | 0.00 | 79 | 1011.7 |
| 20260510041529 | 2 | 271 | 0.0 | 4.8 | 0.00 | 0.00 | 0.00 | 78 | 1011.6 |
| 20260510040028 | 2 | 271 | 3.2 | 6.4 | 0.00 | 0.00 | 0.00 | 77 | 1011.5 |
| 20260510034516 | 3 | 34 | 1.6 | 8.0 | 0.00 | 0.00 | 0.00 | 76 | 1011.3 |
| 20260510033020 | 3 | 247 | 0.0 | 11.3 | 0.00 | 0.00 | 0.00 | 74 | 1011.2 |
| 20260510031525 | 3 | 297 | 1.6 | 14.5 | 0.00 | 0.00 | 0.00 | 73 | 1011.2 |
| 20260510030037 | 3 | 297 | 3.2 | 11.3 | 0.00 | 0.00 | 0.00 | 72 | 1011.1 |
| 20260510024531 | 3 | 287 | 1.6 | 12.9 | 0.00 | 0.00 | 0.00 | 73 | 1011.0 |
| 20260510023020 | 3 | 301 | 3.2 | 9.7 | 0.00 | 0.00 | 0.00 | 74 | 1011.0 |
| 20260510021503 | 3 | 285 | 1.6 | 11.3 | 0.00 | 0.00 | 0.00 | 74 | 1010.7 |
| 20260510020008 | 3 | 295 | 0.0 | 9.7 | 0.00 | 0.00 | 0.00 | 73 | 1010.4 |
| 20260510014511 | 4 | 259 | 4.8 | 11.3 | 0.00 | 0.00 | 0.00 | 71 | 1010.2 |
| 20260510013015 | 5 | 314 | 3.2 | 12.9 | 0.00 | 0.00 | 0.00 | 68 | 1009.9 |
| 20260510011520 | 5 | 343 | 4.8 | 25.7 | 0.00 | 0.00 | 0.00 | 65 | 1009.6 |
| 20260510010003 | 6 | 281 | 3.2 | 17.7 | 0.00 | 0.00 | 0.00 | 62 | 1009.5 |
| 20260510004508 | 6 | 271 | 6.4 | 17.7 | 0.00 | 0.00 | 0.00 | 60 | 1009.3 |
| 20260510003021 | 6 | 14 | 6.4 | 16.1 | 0.00 | 0.00 | 0.00 | 58 | 1009.1 |
| 20260510001517 | 7 | 1 | 8.0 | 32.2 | 0.00 | 0.00 | 0.00 | 51 | 1009.0 |
| 20260510000021 | 7 | 292 | 0.0 | 6.4 | 0.00 | 0.00 | 0.00 | 51 | 1008.1 |
| 20260509234507 | 7 | 344 | 3.2 | 12.9 | 0.00 | 0.00 | 0.00 | 49 | 1007.9 |
| 20260509233015 | 7 | 323 | 3.2 | 11.3 | 0.00 | 0.00 | 0.00 | 49 | 1007.9 |
| 20260509231512 | 7 | 25 | 4.8 | 17.7 | 0.00 | 0.00 | 0.00 | 52 | 1008.0 |
| 20260509230020 | 8 | 60 | 1.6 | 17.7 | 0.00 | 0.00 | 0.00 | 49 | 1007.9 |
| 20260509224524 | 8 | 245 | 4.8 | 14.5 | 0.00 | 0.00 | 0.00 | 48 | 1007.6 |
| 20260509223007 | 8 | 17 | 1.6 | 9.7 | 0.00 | 0.00 | 0.00 | 50 | 1007.4 |
| 20260509221512 | 8 | 323 | 3.2 | 16.1 | 0.00 | 0.00 | 0.00 | 51 | 1007.1 |
| 20260509220017 | 7 | 311 | 3.2 | 11.3 | 0.00 | 0.00 | 0.00 | 60 | 1007.4 |
| 20260509214521 | 7 | 52 | 4.8 | 20.9 | 0.00 | 0.00 | 0.00 | 57 | 1007.6 |
| 20260509213026 | 8 | 29 | 6.4 | 17.7 | 0.00 | 0.00 | 0.00 | 50 | 1007.2 |
| 20260509211507 | 7 | 288 | 6.4 | 16.1 | 0.00 | 0.00 | 0.00 | 50 | 1007.0 |
| 20260509210014 | 8 | 288 | 6.4 | 20.9 | 0.00 | 0.00 | 0.00 | 50 | 1006.9 |
| 20260509204519 | 8 | 311 | 3.2 | 12.9 | 0.00 | 0.00 | 0.00 | 45 | 1006.6 |
| 20260509203025 | 8 | 41 | 6.4 | 22.5 | 0.00 | 0.00 | 0.00 | 42 | 1006.3 |
| 20260509201525 | 9 | 293 | 8.0 | 16.1 | 0.00 | 0.00 | 0.00 | 42 | 1006.0 |
| 20260509200008 | 8 | 271 | 8.0 | 22.5 | 0.00 | 0.00 | 0.00 | 42 | 1005.9 |
| 20260509194518 | 8 | 240 | 4.8 | 24.1 | 0.00 | 0.00 | 0.00 | 42 | 1005.8 |
| 20260509193025 | 8 | 290 | 6.4 | 20.9 | 0.00 | 0.00 | 0.00 | 41 | 1005.8 |
| 20260509191527 | 8 | 228 | 9.7 | 24.1 | 0.00 | 0.00 | 0.00 | 41 | 1005.2 |
| 20260509190028 | 8 | 360 | 3.2 | 20.9 | 0.00 | 0.00 | 0.00 | 40 | 1005.1 |
| 20260509184519 | 9 | 276 | 11.3 | 22.5 | 0.00 | 0.00 | 0.00 | 39 | 1004.8 |
| 20260509183020 | 8 | 245 | 6.4 | 30.6 | 0.00 | 0.00 | 0.00 | 44 | 1004.8 |
| 20260509181522 | 8 | 307 | 6.4 | 19.3 | 0.00 | 0.00 | 0.00 | 42 | 1004.5 |
| 20260509180027 | 10 | 14 | 6.4 | 22.5 | 0.00 | 0.00 | 0.00 | 43 | 1004.0 |
| 20260509174527 | 9 | 298 | 11.3 | 27.4 | 0.00 | 0.00 | 0.00 | 44 | 1004.1 |
| 20260509173015 | 9 | 303 | 9.7 | 17.7 | 0.00 | 0.00 | 0.00 | 48 | 1004.0 |
| 20260509171521 | 9 | 22 | 4.8 | 22.5 | 0.00 | 0.00 | 0.00 | 46 | 1003.6 |
| 20260509170026 | 8 | 290 | 8.0 | 20.9 | 0.00 | 0.00 | 0.00 | 50 | 1003.4 |
| 20260509164527 | 9 | 277 | 6.4 | 24.1 | 0.00 | 0.00 | 0.00 | 46 | 1003.2 |
| 20260509163013 | 10 | 329 | 9.7 | 22.5 | 0.00 | 0.00 | 0.00 | 45 | 1002.8 |
| 20260509161517 | 10 | 276 | 6.4 | 19.3 | 0.00 | 0.00 | 0.00 | 41 | 1002.4 |
| 20260509160024 | 10 | 340 | 8.0 | 20.9 | 0.00 | 0.00 | 0.00 | 41 | 1002.1 |
| 20260509154524 | 10 | 1 | 9.7 | 32.2 | 0.00 | 0.00 | 0.00 | 41 | 1002.1 |